Torna al catalogo

COSMOS 2251 DEB

LostLEO
NORAD 35992·DEBRIS·🇷🇺 Russia

Lanciato Jun 16, 1993 da Plesetsk Cosmodrome

Loading…

Prossimi Passaggi (prossime 24 ore)

TLE

ObsoletoSource: Space-Track

Epoca: May 31, 2015, 01:31 UTC

1 35992U 93036AWJ 15151.06342420  .00001165  00000-0  20536-3 0  9995
2 35992  73.9533 292.9072 0090633 355.1963   4.8325 14.66171244307811

Traccia COSMOS 2251 DEB in tempo reale con AllMySat

Download on the App Store